Retour au catalogue

GOES 12

ActifMétéoGEO
NORAD 26871·PAYLOAD·🇺🇸 United States

Lancé Jul 23, 2001 depuis Cape Canaveral Space Force Station

Loading…

TLE

FraisSource: Space-Track

Époque: Sep 14, 2026, 13:28 UTC

1 26871U 01031A   26257.56146247  .00000054  00000-0  00000-0 0  9995
2 26871  12.3440  36.4717 0005435 286.8765  99.2037  0.99136004 91650

Suivez GOES 12 en temps réel avec AllMySat

Download on the App Store